"Pseudo-MPEC" for P20V3RC

Created 2019 Dec 4 23:07:37 UT using Find_Orb

Click here for an explanation of pseudo-MPECs

 
 Astrometry: 
     P20V3RC  C2019 11 30`J,Astrometryvy(Dvredacted;i+eCwbs6clickecV]3Fehere7F52
     P20V3RC  C2019 11 30lFNvb1\2=21EVaFF?CC'q4FZj*G6I^\forogYWxoCo(.n8pn836:F52
     P20V3RC  C2019 11 30n-N;gryicMEq:X(l(%ad3V]$ol+n`lvUYn.1explanationdP1[DF52
     P20V3RC ^C2019 12 02.19275900 54 27.073-22 47 12.92   ~C2Kb 20.74GVNEOCP568
     P20V3RC ^C2019 12 02.19370800 54 26.471-22 47 14.26   ~C2Kb 20.84GVNEOCP568
     P20V3RC ^C2019 12 02.19465900 54 25.886-22 47 15.48   ~C2Kb 20.73GVNEOCP568
     P20V3RC ^C2019 12 02.19560700 54 25.269-22 47 16.68   ~C2Kb 20.58GVNEOCP568
     P20V3RC ^C2019 12 02.19655500 54 24.685-22 47 17.91   ~C2Kb 20.73GVNEOCP568
     P20V3RC ^C2019 12 02.19751400 54 24.081-22 47 19.19   ~C2Kb 20.62GVNEOCP568
     P20V3RC ^C2019 12 02.19846000 54 23.485-22 47 20.42   ~C2Kb 20.64GVNEOCP568
     P20V3RC ^C2019 12 02.19942900 54 22.870-22 47 21.62   ~C2Kb 20.71GVNEOCP568
     P20V3RC ^C2019 12 02.20037600 54 22.274-22 47 22.85   ~C2Kb 20.72GVNEOCP568
     P20V3RC ^C2019 12 02.20132300 54 21.678-22 47 24.09   ~C2Kb 20.82GVNEOCP568
     P20V3RC ^C2019 12 02.20227000 54 21.064-22 47 25.33   ~C2Kb 20.56GVNEOCP568
     P20V3RC ^C2019 12 02.20321700 54 20.479-22 47 26.47   ~C2Kb 20.80GVNEOCP568
     P20V3RC ^C2019 12 04.21366000 33 59.638-23 20 11.84   ~C4Kq 21.94GVNEOCP568
     P20V3RC ^C2019 12 04.21460500 33 58.868-23 20 12.90   ~C4Kq 20.42GVNEOCP568
     P20V3RC ^C2019 12 04.21555900 33 58.089-23 20 13.90   ~C4Kq 21.64GVNEOCP568
     P20V3RC ^C2019 12 04.21650700 33 57.315-23 20 14.98   ~C4Kq 21.62GVNEOCP568

Station data:
(568) Mauna Kea  (N19.826116 W155.472200)  US/Hawaii.
(F52) Pan-STARRS 2, Haleakala  (N20.707384 W156.255910)  US/Hawaii. 1.8-m
   Ritchey-Chrétien + CCD.

Orbital elements:  P20V3RC
   Perihelion 2020 Jan 8.891338 +/- 0.0566 TT = 21:23:31 (JD 2458857.391338)
Epoch 2019 Dec  4.0 TT = JDT 2458821.5   Earth MOID: 0.0067   Ma: 0.0248
M 334.56749250 +/- 0.21             (J2000 ecliptic)          AutoNEOCP
n   0.70859735 +/- 0.00484          Peri.   30.58020 +/- 0.007
a   1.24605256 +/- 0.00568          Node    80.39663 +/- 0.018
e   0.2402108 +/- 0.00388           Incl.    4.15085 +/- 0.06
P   1.39/508.04d           H 26.1   G  0.15   U  9.2  
q 0.94673720 +/- 0.000517    Q 1.54536793 +/- 0.0118
From 19 observations 2019 Nov. 30-Dec. 4; mean residual 0".28
Residuals in arcseconds: 
191130 F52  .78-  .29-    191202 568  .17+  .11-    191202 568  .39-  .24-    
191130 F52  .61+  .35+    191202 568  .10+  .17-    191204 568  .14+  .15+    
191130 F52  .10+  .40+    191202 568  .03+  .20-    191204 568  .05+  .11+    
191202 568  .48+  .02+    191202 568  .10-  .17-    191204 568  .06-  .13+    
191202 568  .32+  .10-    191202 568  .16-  .20-    191204 568  .17-  .07+    
191202 568  .43+  .10-    191202 568  .21-  .24-    
191202 568  .07+  .09-    191202 568  .50-  .29-    

Ephemerides (geocentric):
Date (UTC) HH   RA              Dec         delta   r     elong  mag " sig PA
---- -- -- --  -------------   -----------  ------ ------ -----  --- ---- ---
2019 12 04 23  00 24 52.998   -23 27 47.53  .02989 0.9924 102.4 21.1 3.24  10
2019 12 05 00  00 24 20.968   -23 28 21.51  .02980 0.9923 102.2 21.1 3.28  12
2019 12 05 01  00 23 48.746   -23 28 55.24  .02971 0.9922 102.1 21.1 3.32  14
2019 12 05 02  00 23 16.331   -23 29 28.72  .02962 0.9921 101.9 21.1 3.37  16
2019 12 05 03  00 22 43.722   -23 30 01.96  .02953 0.9920 101.8 21.1 3.42  18
2019 12 05 04  00 22 10.917   -23 30 34.93  .02945 0.9919 101.6 21.1 3.47  20
2019 12 05 05  00 21 37.915   -23 31 07.63  .02936 0.9918 101.5 21.1 3.54  22
2019 12 05 06  00 21 04.714   -23 31 40.07  .02927 0.9917 101.3 21.1 3.60  24
2019 12 05 07  00 20 31.313   -23 32 12.22  .02918 0.9916 101.2 21.1 3.68  26
2019 12 05 08  00 19 57.709   -23 32 44.09  .02909 0.9915 101.0 21.1 3.75  27
2019 12 05 09  00 19 23.902   -23 33 15.67  .02901 0.9914 100.9 21.1 3.84  29
2019 12 05 10  00 18 49.890   -23 33 46.96  .02892 0.9913 100.7 21.1 3.92  31
2019 12 05 11  00 18 15.670   -23 34 17.94  .02883 0.9912 100.6 21.1 4.02  33
2019 12 05 12  00 17 41.243   -23 34 48.61  .02874 0.9911 100.4 21.1 4.12  34
2019 12 05 13  00 17 06.605   -23 35 18.96  .02866 0.9909 100.2 21.0 4.22  36
2019 12 05 14  00 16 31.755   -23 35 48.99  .02857 0.9908 100.1 21.0 4.33  38
2019 12 05 15  00 15 56.692   -23 36 18.68  .02848 0.9907  99.9 21.0 4.45  39
2019 12 05 16  00 15 21.415   -23 36 48.04  .02840 0.9906  99.8 21.0 4.57  41
2019 12 05 17  00 14 45.920   -23 37 17.05  .02831 0.9905  99.6 21.0 4.70  42
2019 12 05 18  00 14 10.207   -23 37 45.70  .02822 0.9904  99.4 21.0 4.83  44
2019 12 05 19  00 13 34.274   -23 38 13.99  .02814 0.9903  99.3 21.0 4.97  45
2019 12 05 20  00 12 58.119   -23 38 41.91  .02805 0.9902  99.1 21.0 5.11  47
2019 12 05 21  00 12 21.741   -23 39 09.46  .02796 0.9901  99.0 21.0 5.26  48
2019 12 05 22  00 11 45.137   -23 39 36.62  .02788 0.9900  98.8 21.0 5.42  49
2019 12 05 23  00 11 08.307   -23 40 03.38  .02779 .98994  98.6 21.0 5.58  51
2019 12 06 00  00 10 31.248   -23 40 29.74  .02771 .98984  98.5 21.0 5.75  52
2019 12 06 01  00 09 53.958   -23 40 55.69  .02762 .98974  98.3 21.0 5.92  53
2019 12 06 02  00 09 16.436   -23 41 21.22  .02754 .98964  98.1 21.0 6.10  54
2019 12 06 03  00 08 38.681   -23 41 46.32  .02745 .98954  98.0 21.0 6.28  55
2019 12 06 04  00 08 00.689   -23 42 10.98  .02737 .98944  97.8 21.0 6.47  56
2019 12 06 05  00 07 22.460   -23 42 35.19  .02728 .98934  97.6 21.0 6.66  57
2019 12 06 06  00 06 43.992   -23 42 58.94  .02720 .98924  97.4 21.0 6.86  58
2019 12 06 07  00 06 05.283   -23 43 22.23  .02711 .98914  97.3 21.0 7.07  59
2019 12 06 08  00 05 26.330   -23 43 45.04  .02703 .98904  97.1 21.0 7.28  60
2019 12 06 09  00 04 47.133   -23 44 07.37  .02694 .98894  96.9 21.0 7.50  61
2019 12 06 10  00 04 07.689   -23 44 29.19  .02686 .98884  96.8 21.0 7.72  62
2019 12 06 11  00 03 27.997   -23 44 50.51  .02677 .98874  96.6 21.0 7.95  63
2019 12 06 12  00 02 48.055   -23 45 11.31  .02669 .98864  96.4 21.0 8.19  63
2019 12 06 13  00 02 07.860   -23 45 31.58  .02661 .98854  96.2 21.0 8.43  64
2019 12 06 14  00 01 27.411   -23 45 51.32  .02652 .98844  96.0 21.0 8.67  65
2019 12 06 15  00 00 46.707   -23 46 10.50  .02644 .98834  95.9 21.0 8.92  66
2019 12 06 16  00 00 05.745   -23 46 29.12  .02636 .98825  95.7 21.0 9.18  66
2019 12 06 17  23 59 24.523   -23 46 47.16  .02628 .98815  95.5 21.0 9.44  67
2019 12 06 18  23 58 43.039   -23 47 04.63  .02619 .98805  95.3 21.0 9.71  68
2019 12 06 19  23 58 01.292   -23 47 21.49  .02611 .98795  95.1 21.0 9.99  68
2019 12 06 20  23 57 19.280   -23 47 37.74  .02603 .98785  95.0 21.0 10.3  69
2019 12 06 21  23 56 37.000   -23 47 53.38  .02595 .98775  94.8 21.0 10.6  69
2019 12 06 22  23 55 54.452   -23 48 08.38  .02586 .98765  94.6 21.0 10.9  70